Time,TemperatureF,DewpointF,PressureIn,WindDirection,WindDirectionDegrees,WindSpeedMPH,WindSpeedGustMPH,Humidity,HourlyPrecipIn,Conditions,Clouds,dailyrainin,SoftwareType,DateUTC
2013-02-13 00:04:00,40.9,27.2,30.19,WNW,288,3.0,6.0,58,0.00,,,0.00,Wunderground v.1.15,2013-02-13 07:04:00,
2013-02-13 00:10:00,40.8,27.6,30.19,West,277,3.0,3.0,59,0.00,,,0.00,Wunderground v.1.15,2013-02-13 07:10:00,
2013-02-13 00:15:00,40.7,27.5,30.19,WNW,291,3.0,4.0,59,0.00,,,0.00,Wunderground v.1.15,2013-02-13 07:15:00,
2013-02-13 00:21:00,40.6,27.4,30.19,West,273,3.0,3.0,59,0.00,,,0.00,Wunderground v.1.15,2013-02-13 07:21:00,
2013-02-13 00:26:00,40.5,27.3,30.19,West,275,2.0,4.0,59,0.00,,,0.00,Wunderground v.1.15,2013-02-13 07:26:00,
2013-02-13 00:31:00,40.3,27.1,30.18,West,281,2.0,2.0,59,0.00,,,0.00,Wunderground v.1.15,2013-02-13 07:31:00,
2013-02-13 00:36:00,40.2,27.0,30.19,West,276,2.0,5.0,59,0.00,,,0.00,Wunderground v.1.15,2013-02-13 07:36:00,
2013-02-13 00:41:00,40.1,27.3,30.18,WNW,285,2.0,2.0,60,0.00,,,0.00,Wunderground v.1.15,2013-02-13 07:41:00,
2013-02-13 00:47:00,39.9,27.1,30.19,WNW,284,1.0,4.0,60,0.00,,,0.00,Wunderground v.1.15,2013-02-13 07:47:00,
2013-02-13 00:52:00,39.8,27.0,30.19,WNW,284,0.0,1.0,60,0.00,,,0.00,Wunderground v.1.15,2013-02-13 07:52:00,
2013-02-13 00:57:00,39.7,26.9,30.19,WNW,284,0.0,1.0,60,0.00,,,0.00,Wunderground v.1.15,2013-02-13 07:57:00,
2013-02-13 01:03:00,39.5,26.8,30.19,WNW,284,0.0,0.0,60,0.00,,,0.00,Wunderground v.1.15,2013-02-13 08:03:00,
2013-02-13 01:08:00,39.2,27.3,30.18,WNW,284,0.0,1.0,62,0.00,,,0.00,Wunderground v.1.15,2013-02-13 08:08:00,
2013-02-13 01:13:00,39.0,27.1,30.19,WNW,284,0.0,0.0,62,0.00,,,0.00,Wunderground v.1.15,2013-02-13 08:13:00,
2013-02-13 01:19:00,38.7,27.2,30.18,WNW,284,0.0,0.0,63,0.00,,,0.00,Wunderground v.1.15,2013-02-13 08:19:00,
2013-02-13 01:24:00,38.4,27.3,30.18,WNW,284,0.0,1.0,64,0.00,,,0.00,Wunderground v.1.15,2013-02-13 08:24:00,
2013-02-13 01:30:00,38.2,27.1,30.18,WNW,284,0.0,0.0,64,0.00,,,0.00,Wunderground v.1.15,2013-02-13 08:30:00,
2013-02-13 01:36:00,37.9,27.2,30.18,WNW,284,0.0,0.0,65,0.00,,,0.00,Wunderground v.1.15,2013-02-13 08:36:00,
2013-02-13 01:41:00,37.7,27.4,30.18,WNW,284,0.0,0.0,66,0.00,,,0.00,Wunderground v.1.15,2013-02-13 08:41:00,
2013-02-13 01:46:00,37.5,27.2,30.18,WNW,284,0.0,0.0,66,0.00,,,0.00,Wunderground v.1.15,2013-02-13 08:46:00,
2013-02-13 01:51:00,37.2,26.9,30.18,WNW,284,0.0,0.0,66,0.00,,,0.00,Wunderground v.1.15,2013-02-13 08:51:00,
2013-02-13 01:56:00,36.7,27.1,30.18,WNW,284,0.0,1.0,68,0.00,,,0.00,Wunderground v.1.15,2013-02-13 08:56:00,
2013-02-13 02:02:00,36.3,27.1,30.17,WNW,284,0.0,0.0,69,0.00,,,0.00,Wunderground v.1.15,2013-02-13 09:02:00,
2013-02-13 02:08:00,36.0,26.8,30.18,WNW,284,0.0,1.0,69,0.00,,,0.00,Wunderground v.1.15,2013-02-13 09:08:00,
2013-02-13 02:14:00,35.7,26.9,30.17,WNW,284,0.0,1.0,70,0.00,,,0.00,Wunderground v.1.15,2013-02-13 09:14:00,
2013-02-13 02:19:00,35.4,26.9,30.17,WNW,284,0.0,1.0,71,0.00,,,0.00,Wunderground v.1.15,2013-02-13 09:19:00,
2013-02-13 02:24:00,35.2,26.7,30.17,WNW,284,0.0,0.0,71,0.00,,,0.00,Wunderground v.1.15,2013-02-13 09:24:00,
2013-02-13 02:29:00,35.2,26.7,30.17,WNW,284,0.0,0.0,71,0.00,,,0.00,Wunderground v.1.15,2013-02-13 09:29:00,
2013-02-13 02:34:00,35.0,26.9,30.17,WNW,284,0.0,2.0,72,0.00,,,0.00,Wunderground v.1.15,2013-02-13 09:34:00,
2013-02-13 02:39:00,34.9,27.1,30.17,SSE,165,1.0,3.0,73,0.00,,,0.00,Wunderground v.1.15,2013-02-13 09:39:00,
2013-02-13 02:44:00,34.9,27.8,30.16,SSW,198,2.0,5.0,75,0.00,,,0.00,Wunderground v.1.15,2013-02-13 09:44:00,
2013-02-13 02:49:00,34.9,28.1,30.16,SSW,194,3.0,5.0,76,0.00,,,0.00,Wunderground v.1.15,2013-02-13 09:49:00,
2013-02-13 02:54:00,35.0,28.2,30.16,South,175,2.0,4.0,76,0.00,,,0.00,Wunderground v.1.15,2013-02-13 09:54:00,
2013-02-13 02:59:00,35.1,28.3,30.16,SSW,198,2.0,4.0,76,0.00,,,0.00,Wunderground v.1.15,2013-02-13 09:59:00,
2013-02-13 03:04:00,35.2,28.4,30.16,SSW,193,2.0,4.0,76,0.00,,,0.00,Wunderground v.1.15,2013-02-13 10:04:00,
2013-02-13 03:09:00,35.3,28.5,30.16,SSW,200,3.0,4.0,76,0.00,,,0.00,Wunderground v.1.15,2013-02-13 10:09:00,
2013-02-13 03:14:00,35.4,28.6,30.16,South,180,3.0,4.0,76,0.00,,,0.00,Wunderground v.1.15,2013-02-13 10:14:00,
2013-02-13 03:19:00,35.5,28.4,30.15,SSW,192,3.0,5.0,75,0.00,,,0.00,Wunderground v.1.15,2013-02-13 10:19:00,
2013-02-13 03:25:00,35.6,28.5,30.15,South,175,2.0,3.0,75,0.00,,,0.00,Wunderground v.1.15,2013-02-13 10:25:00,
2013-02-13 03:30:00,35.6,28.1,30.15,SSW,198,1.0,1.0,74,0.00,,,0.00,Wunderground v.1.15,2013-02-13 10:30:00,
2013-02-13 03:35:00,35.6,28.1,30.15,SSW,212,2.0,5.0,74,0.00,,,0.00,Wunderground v.1.15,2013-02-13 10:35:00,
2013-02-13 03:40:00,35.6,28.1,30.15,SW,219,3.0,3.0,74,0.00,,,0.00,Wunderground v.1.15,2013-02-13 10:40:00,
2013-02-13 03:45:00,35.6,28.1,30.15,SW,219,1.0,3.0,74,0.00,,,0.00,Wunderground v.1.15,2013-02-13 10:45:00,
2013-02-13 03:50:00,35.7,28.2,30.15,SW,219,0.0,1.0,74,0.00,,,0.00,Wunderground v.1.15,2013-02-13 10:50:00,
2013-02-13 03:55:00,35.7,27.9,30.15,SW,219,1.0,3.0,73,0.00,,,0.00,Wunderground v.1.15,2013-02-13 10:55:00,
2013-02-13 04:00:00,35.7,27.9,30.16,SW,219,1.0,1.0,73,0.00,,,0.00,Wunderground v.1.15,2013-02-13 11:00:00,
2013-02-13 04:05:00,35.8,28.0,30.16,SW,219,1.0,1.0,73,0.00,,,0.00,Wunderground v.1.15,2013-02-13 11:05:00,
2013-02-13 04:10:00,35.9,27.7,30.16,SW,219,1.0,2.0,72,0.00,,,0.00,Wunderground v.1.15,2013-02-13 11:10:00,
2013-02-13 04:16:00,35.8,27.7,30.16,SW,219,1.0,3.0,72,0.00,,,0.00,Wunderground v.1.15,2013-02-13 11:16:00,
2013-02-13 04:22:00,35.7,27.6,30.16,SW,219,0.0,0.0,72,0.00,,,0.00,Wunderground v.1.15,2013-02-13 11:22:00,
2013-02-13 04:27:00,35.4,27.6,30.15,SW,219,0.0,0.0,73,0.00,,,0.00,Wunderground v.1.15,2013-02-13 11:27:00,
2013-02-13 04:32:00,35.1,27.3,30.15,SW,219,0.0,0.0,73,0.00,,,0.00,Wunderground v.1.15,2013-02-13 11:32:00,
2013-02-13 04:37:00,34.8,27.4,30.15,SW,219,0.0,0.0,74,0.00,,,0.00,Wunderground v.1.15,2013-02-13 11:37:00,
2013-02-13 04:42:00,34.3,27.2,30.15,SW,219,0.0,2.0,75,0.00,,,0.00,Wunderground v.1.15,2013-02-13 11:42:00,
2013-02-13 04:47:00,33.8,27.0,30.15,SW,219,0.0,2.0,76,0.00,,,0.00,Wunderground v.1.15,2013-02-13 11:47:00,
2013-02-13 04:53:00,33.5,27.1,30.15,SW,219,0.0,0.0,77,0.00,,,0.00,Wunderground v.1.15,2013-02-13 11:53:00,
2013-02-13 04:59:00,33.3,26.9,30.16,WNW,290,1.0,3.0,77,0.00,,,0.00,Wunderground v.1.15,2013-02-13 11:59:00,
2013-02-13 05:04:00,33.1,27.0,30.16,WNW,290,1.0,2.0,78,0.00,,,0.00,Wunderground v.1.15,2013-02-13 12:04:00,
2013-02-13 05:09:00,33.0,26.9,30.16,WNW,290,1.0,2.0,78,0.00,,,0.00,Wunderground v.1.15,2013-02-13 12:09:00,
2013-02-13 05:15:00,32.7,26.9,30.16,WNW,290,0.0,1.0,79,0.00,,,0.00,Wunderground v.1.15,2013-02-13 12:15:00,
2013-02-13 05:20:00,32.5,27.0,30.16,WNW,290,1.0,1.0,80,0.00,,,0.00,Wunderground v.1.15,2013-02-13 12:20:00,
2013-02-13 05:25:00,32.2,27.0,30.16,WNW,290,1.0,1.0,81,0.00,,,0.00,Wunderground v.1.15,2013-02-13 12:25:00,
2013-02-13 05:30:00,32.0,26.8,30.16,WNW,290,1.0,1.0,81,0.00,,,0.00,Wunderground v.1.15,2013-02-13 12:30:00,
2013-02-13 05:35:00,31.9,27.0,30.16,WNW,290,1.0,2.0,82,0.00,,,0.00,Wunderground v.1.15,2013-02-13 12:35:00,
2013-02-13 05:40:00,31.8,26.9,30.16,WNW,290,1.0,1.0,82,0.00,,,0.00,Wunderground v.1.15,2013-02-13 12:40:00,
2013-02-13 05:46:00,31.8,27.2,30.16,WNW,290,1.0,2.0,83,0.00,,,0.00,Wunderground v.1.15,2013-02-13 12:46:00,
2013-02-13 05:51:00,31.8,27.2,30.16,WNW,290,0.0,0.0,83,0.00,,,0.00,Wunderground v.1.15,2013-02-13 12:51:00,
2013-02-13 05:56:00,31.7,27.1,30.16,WNW,290,0.0,0.0,83,0.00,,,0.00,Wunderground v.1.15,2013-02-13 12:56:00,
2013-02-13 06:01:00,31.7,27.1,30.16,WNW,290,0.0,0.0,83,0.00,,,0.00,Wunderground v.1.15,2013-02-13 13:01:00,
2013-02-13 06:06:00,31.7,27.1,30.16,WNW,290,0.0,0.0,83,0.00,,,0.00,Wunderground v.1.15,2013-02-13 13:06:00,
2013-02-13 06:12:00,31.7,27.1,30.17,WNW,290,0.0,0.0,83,0.00,,,0.00,Wunderground v.1.15,2013-02-13 13:12:00,
2013-02-13 06:18:00,31.7,27.1,30.17,WNW,290,0.0,2.0,83,0.00,,,0.00,Wunderground v.1.15,2013-02-13 13:18:00,
2013-02-13 06:23:00,31.7,27.1,30.17,WNW,290,0.0,1.0,83,0.00,,,0.00,Wunderground v.1.15,2013-02-13 13:23:00,
2013-02-13 06:29:00,31.8,27.2,30.17,WNW,290,0.0,1.0,83,0.00,,,0.00,Wunderground v.1.15,2013-02-13 13:29:00,
2013-02-13 06:34:00,31.8,27.2,30.17,WNW,290,1.0,1.0,83,0.00,,,0.00,Wunderground v.1.15,2013-02-13 13:34:00,
2013-02-13 06:39:00,31.8,27.2,30.17,WNW,290,0.0,1.0,83,0.00,,,0.00,Wunderground v.1.15,2013-02-13 13:39:00,
2013-02-13 06:45:00,31.9,27.3,30.17,WNW,290,1.0,2.0,83,0.00,,,0.00,Wunderground v.1.15,2013-02-13 13:45:00,
2013-02-13 06:50:00,32.1,27.5,30.18,WNW,290,1.0,1.0,83,0.00,,,0.00,Wunderground v.1.15,2013-02-13 13:50:00,
2013-02-13 06:55:00,32.3,27.7,30.18,WNW,290,2.0,4.0,83,0.00,,,0.00,Wunderground v.1.15,2013-02-13 13:55:00,
2013-02-13 07:00:00,32.5,27.6,30.18,WNW,290,2.0,2.0,82,0.00,,,0.00,Wunderground v.1.15,2013-02-13 14:00:00,
2013-02-13 07:05:00,32.7,27.5,30.18,WNW,290,1.0,2.0,81,0.00,,,0.00,Wunderground v.1.15,2013-02-13 14:05:00,
2013-02-13 07:11:00,32.8,27.3,30.17,WNW,290,1.0,1.0,80,0.00,,,0.00,Wunderground v.1.15,2013-02-13 14:11:00,
2013-02-13 07:16:00,32.9,27.1,30.18,WNW,290,1.0,2.0,79,0.00,,,0.00,Wunderground v.1.15,2013-02-13 14:16:00,
2013-02-13 07:21:00,32.9,27.1,30.18,WNW,290,1.0,1.0,79,0.00,,,0.00,Wunderground v.1.15,2013-02-13 14:21:00,
2013-02-13 07:26:00,32.9,26.8,30.18,WNW,290,1.0,1.0,78,0.00,,,0.00,Wunderground v.1.15,2013-02-13 14:26:00,
2013-02-13 07:31:00,33.0,26.9,30.18,WNW,290,1.0,2.0,78,0.00,,,0.00,Wunderground v.1.15,2013-02-13 14:31:00,
2013-02-13 07:37:00,33.4,27.3,30.18,WNW,290,1.0,2.0,78,0.00,,,0.00,Wunderground v.1.15,2013-02-13 14:37:00,
2013-02-13 07:43:00,34.6,27.8,30.18,WNW,290,0.0,1.0,76,0.00,,,0.00,Wunderground v.1.15,2013-02-13 14:43:00,
2013-02-13 07:48:00,35.2,28.1,30.18,WNW,290,0.0,1.0,75,0.00,,,0.00,Wunderground v.1.15,2013-02-13 14:48:00,
2013-02-13 07:53:00,36.1,27.9,30.18,WNW,290,0.0,0.0,72,0.00,,,0.00,Wunderground v.1.15,2013-02-13 14:53:00,
2013-02-13 07:59:00,36.3,28.1,30.19,WNW,290,0.0,0.0,72,0.00,,,0.00,Wunderground v.1.15,2013-02-13 14:59:00,
2013-02-13 08:04:00,37.4,28.5,30.19,WNW,290,0.0,0.0,70,0.00,,,0.00,Wunderground v.1.15,2013-02-13 15:04:00,
2013-02-13 08:09:00,38.3,29.0,30.19,WNW,290,0.0,1.0,69,0.00,,,0.00,Wunderground v.1.15,2013-02-13 15:09:00,
2013-02-13 08:14:00,37.2,28.3,30.19,WNW,290,0.0,2.0,70,0.00,,,0.00,Wunderground v.1.15,2013-02-13 15:14:00,
2013-02-13 08:19:00,37.1,28.6,30.19,WNW,292,1.0,4.0,71,0.00,,,0.00,Wunderground v.1.15,2013-02-13 15:19:00,
2013-02-13 08:25:00,37.3,28.4,30.19,WNW,292,2.0,2.0,70,0.00,,,0.00,Wunderground v.1.15,2013-02-13 15:25:00,
2013-02-13 08:30:00,37.5,28.2,30.19,WNW,292,2.0,2.0,69,0.00,,,0.00,Wunderground v.1.15,2013-02-13 15:30:00,
2013-02-13 08:36:00,38.3,28.3,30.20,WNW,293,2.0,2.0,67,0.00,,,0.00,Wunderground v.1.15,2013-02-13 15:36:00,
2013-02-13 08:42:00,39.0,28.2,30.20,NNE,16,2.0,2.0,65,0.00,,,0.00,Wunderground v.1.15,2013-02-13 15:42:00,
2013-02-13 08:48:00,40.1,29.3,30.20,NNE,30,1.0,2.0,65,0.00,,,0.00,Wunderground v.1.15,2013-02-13 15:48:00,
2013-02-13 08:54:00,40.4,28.8,30.20,East,100,2.0,3.0,63,0.00,,,0.00,Wunderground v.1.15,2013-02-13 15:54:00,
2013-02-13 08:59:00,41.1,29.1,30.21,ESE,115,2.0,3.0,62,0.00,,,0.00,Wunderground v.1.15,2013-02-13 15:59:00,
2013-02-13 09:04:00,41.9,29.4,30.21,SE,141,2.0,4.0,61,0.00,,,0.00,Wunderground v.1.15,2013-02-13 16:04:00,
2013-02-13 09:10:00,41.5,28.6,30.21,SE,130,2.0,5.0,60,0.00,,,0.00,Wunderground v.1.15,2013-02-13 16:10:00,
2013-02-13 09:15:00,42.0,29.5,30.21,SE,136,2.0,5.0,61,0.00,,,0.00,Wunderground v.1.15,2013-02-13 16:15:00,
2013-02-13 09:20:00,42.3,29.0,30.21,SE,135,1.0,4.0,59,0.00,,,0.00,Wunderground v.1.15,2013-02-13 16:20:00,
2013-02-13 09:25:00,42.6,28.0,30.21,SE,127,1.0,4.0,56,0.00,,,0.00,Wunderground v.1.15,2013-02-13 16:25:00,
2013-02-13 09:31:00,43.8,29.1,30.21,SE,146,2.0,2.0,56,0.00,,,0.00,Wunderground v.1.15,2013-02-13 16:31:00,
2013-02-13 09:37:00,43.7,28.1,30.21,SE,124,1.0,3.0,54,0.00,,,0.00,Wunderground v.1.15,2013-02-13 16:37:00,
2013-02-13 09:42:00,43.9,27.9,30.21,SE,146,2.0,3.0,53,0.00,,,0.00,Wunderground v.1.15,2013-02-13 16:42:00,
2013-02-13 09:47:00,44.6,29.0,30.21,SE,135,2.0,4.0,54,0.00,,,0.00,Wunderground v.1.15,2013-02-13 16:47:00,
2013-02-13 09:53:00,44.3,27.8,30.21,SE,141,3.0,3.0,52,0.00,,,0.00,Wunderground v.1.15,2013-02-13 16:53:00,
2013-02-13 09:58:00,45.1,28.5,30.21,SE,142,3.0,3.0,52,0.00,,,0.00,Wunderground v.1.15,2013-02-13 16:58:00,
2013-02-13 10:03:00,45.6,29.0,30.21,SE,131,2.0,2.0,52,0.00,,,0.00,Wunderground v.1.15,2013-02-13 17:03:00,
2013-02-13 10:08:00,45.2,27.2,30.20,SE,130,2.0,4.0,49,0.00,,,0.00,Wunderground v.1.15,2013-02-13 17:08:00,
2013-02-13 10:13:00,45.4,26.8,30.20,ESE,119,2.0,3.0,48,0.00,,,0.00,Wunderground v.1.15,2013-02-13 17:13:00,
2013-02-13 10:19:00,46.0,26.9,30.20,SE,143,3.0,8.0,47,0.00,,,0.00,Wunderground v.1.15,2013-02-13 17:19:00,
2013-02-13 10:24:00,46.3,26.6,30.20,SSE,153,4.0,4.0,46,0.00,,,0.00,Wunderground v.1.15,2013-02-13 17:24:00,
2013-02-13 10:29:00,46.7,27.5,30.20,SSE,149,3.0,5.0,47,0.00,,,0.00,Wunderground v.1.15,2013-02-13 17:29:00,
2013-02-13 10:34:00,46.5,27.3,30.20,ESE,121,2.0,4.0,47,0.00,,,0.00,Wunderground v.1.15,2013-02-13 17:34:00,
2013-02-13 10:39:00,47.4,28.2,30.20,SE,125,1.0,4.0,47,0.00,,,0.00,Wunderground v.1.15,2013-02-13 17:39:00,
2013-02-13 10:44:00,47.7,27.9,30.20,South,175,1.0,2.0,46,0.00,,,0.00,Wunderground v.1.15,2013-02-13 17:44:00,
2013-02-13 10:50:00,49.4,28.4,30.20,SW,226,2.0,2.0,44,0.00,,,0.00,Wunderground v.1.15,2013-02-13 17:50:00,
2013-02-13 10:55:00,48.7,26.6,30.21,ESE,116,2.0,2.0,42,0.00,,,0.00,Wunderground v.1.15,2013-02-13 17:55:00,
2013-02-13 11:00:00,48.9,26.2,30.20,SE,136,2.0,2.0,41,0.00,,,0.00,Wunderground v.1.15,2013-02-13 18:00:00,
2013-02-13 11:05:00,48.6,26.5,30.20,SE,136,1.0,2.0,42,0.00,,,0.00,Wunderground v.1.15,2013-02-13 18:05:00,
2013-02-13 11:11:00,49.2,26.5,30.20,SE,143,0.0,0.0,41,0.00,,,0.00,Wunderground v.1.15,2013-02-13 18:11:00,
2013-02-13 11:17:00,50.1,27.3,30.19,SE,143,0.0,2.0,41,0.00,,,0.00,Wunderground v.1.15,2013-02-13 18:17:00,
2013-02-13 11:22:00,49.9,26.5,30.20,SSE,165,1.0,2.0,40,0.00,,,0.00,Wunderground v.1.15,2013-02-13 18:22:00,
2013-02-13 11:28:00,50.3,27.5,30.19,ESE,104,1.0,4.0,41,0.00,,,0.00,Wunderground v.1.15,2013-02-13 18:28:00,
2013-02-13 11:33:00,51.6,28.0,30.19,ENE,65,1.0,2.0,40,0.00,,,0.00,Wunderground v.1.15,2013-02-13 18:33:00,
2013-02-13 11:38:00,51.2,25.8,30.19,ESE,104,1.0,3.0,37,0.00,,,0.00,Wunderground v.1.15,2013-02-13 18:38:00,
2013-02-13 11:43:00,51.7,25.6,30.19,East,94,1.0,3.0,36,0.00,,,0.00,Wunderground v.1.15,2013-02-13 18:43:00,
2013-02-13 11:49:00,51.1,25.0,30.18,East,100,2.0,6.0,36,0.00,,,0.00,Wunderground v.1.15,2013-02-13 18:49:00,
2013-02-13 11:54:00,51.9,25.8,30.18,ESE,107,2.0,2.0,36,0.00,,,0.00,Wunderground v.1.15,2013-02-13 18:54:00,
2013-02-13 11:59:00,52.9,25.3,30.18,WSW,244,2.0,5.0,34,0.00,,,0.00,Wunderground v.1.15,2013-02-13 18:59:00,
2013-02-13 12:05:00,52.4,24.8,30.17,North,352,2.0,2.0,34,0.00,,,0.00,Wunderground v.1.15,2013-02-13 19:05:00,
2013-02-13 12:10:00,53.2,25.5,30.17,North,360,1.0,1.0,34,0.00,,,0.00,Wunderground v.1.15,2013-02-13 19:10:00,
2013-02-13 12:15:00,53.9,26.1,30.17,SSE,156,1.0,3.0,34,0.00,,,0.00,Wunderground v.1.15,2013-02-13 19:15:00,
2013-02-13 12:20:00,53.0,26.0,30.17,East,98,2.0,2.0,35,0.00,,,0.00,Wunderground v.1.15,2013-02-13 19:20:00,
2013-02-13 12:25:00,53.5,25.8,30.16,ESE,116,3.0,3.0,34,0.00,,,0.00,Wunderground v.1.15,2013-02-13 19:25:00,
2013-02-13 12:31:00,55.0,26.4,30.16,SSW,208,3.0,5.0,33,0.00,,,0.00,Wunderground v.1.15,2013-02-13 19:31:00,
2013-02-13 12:36:00,56.1,25.8,30.16,SSW,196,3.0,5.0,31,0.00,,,0.00,Wunderground v.1.15,2013-02-13 19:36:00,
2013-02-13 12:42:00,55.3,25.1,30.15,South,181,2.0,3.0,31,0.00,,,0.00,Wunderground v.1.15,2013-02-13 19:42:00,
2013-02-13 12:47:00,55.5,23.7,30.15,South,183,1.0,3.0,29,0.00,,,0.00,Wunderground v.1.15,2013-02-13 19:47:00,
2013-02-13 12:52:00,55.2,25.1,30.15,ESE,121,1.0,3.0,31,0.00,,,0.00,Wunderground v.1.15,2013-02-13 19:52:00,
2013-02-13 12:57:00,55.4,23.6,30.15,East,96,2.0,3.0,29,0.00,,,0.00,Wunderground v.1.15,2013-02-13 19:57:00,
2013-02-13 13:02:00,55.9,23.2,30.14,SSE,165,1.0,2.0,28,0.00,,,0.00,Wunderground v.1.15,2013-02-13 20:02:00,
2013-02-13 13:08:00,56.1,22.5,30.14,East,89,2.0,4.0,27,0.00,,,0.00,Wunderground v.1.15,2013-02-13 20:08:00,
2013-02-13 13:13:00,56.3,22.7,30.14,NE,51,2.0,2.0,27,0.00,,,0.00,Wunderground v.1.15,2013-02-13 20:13:00,
2013-02-13 13:18:00,57.1,23.4,30.14,NE,52,1.0,4.0,27,0.00,,,0.00,Wunderground v.1.15,2013-02-13 20:18:00,
2013-02-13 13:24:00,56.3,20.9,30.13,ESE,119,2.0,3.0,25,0.00,,,0.00,Wunderground v.1.15,2013-02-13 20:24:00,
2013-02-13 13:30:00,56.6,22.1,30.13,SW,226,1.0,1.0,26,0.00,,,0.00,Wunderground v.1.15,2013-02-13 20:30:00,
2013-02-13 13:35:00,58.9,23.1,30.13,West,277,1.0,1.0,25,0.00,,,0.00,Wunderground v.1.15,2013-02-13 20:35:00,
2013-02-13 13:40:00,59.1,21.3,30.13,NW,311,1.0,2.0,23,0.00,,,0.00,Wunderground v.1.15,2013-02-13 20:40:00,
2013-02-13 13:45:00,58.8,22.0,30.13,WNW,288,2.0,4.0,24,0.00,,,0.00,Wunderground v.1.15,2013-02-13 20:45:00,
2013-02-13 13:51:00,58.3,20.6,30.13,WNW,285,2.0,2.0,23,0.00,,,0.00,Wunderground v.1.15,2013-02-13 20:51:00,
2013-02-13 13:56:00,58.8,22.0,30.13,West,279,1.0,4.0,24,0.00,,,0.00,Wunderground v.1.15,2013-02-13 20:56:00,
2013-02-13 14:01:00,58.6,21.9,30.12,West,268,2.0,2.0,24,0.00,,,0.00,Wunderground v.1.15,2013-02-13 21:01:00,
2013-02-13 14:06:00,58.0,19.3,30.12,WSW,242,2.0,4.0,22,0.00,,,0.00,Wunderground v.1.15,2013-02-13 21:06:00,
2013-02-13 14:12:00,58.6,19.8,30.12,West,281,3.0,5.0,22,0.00,,,0.00,Wunderground v.1.15,2013-02-13 21:12:00,
2013-02-13 14:17:00,59.2,21.4,30.11,NNW,341,2.0,5.0,23,0.00,,,0.00,Wunderground v.1.15,2013-02-13 21:17:00,
2013-02-13 14:22:00,58.1,18.3,30.11,WNW,290,1.0,2.0,21,0.00,,,0.00,Wunderground v.1.15,2013-02-13 21:22:00,
2013-02-13 14:27:00,59.8,19.7,30.11,WSW,258,1.0,4.0,21,0.00,,,0.00,Wunderground v.1.15,2013-02-13 21:27:00,
2013-02-13 14:33:00,59.6,18.4,30.11,WNW,291,2.0,5.0,20,0.00,,,0.00,Wunderground v.1.15,2013-02-13 21:33:00,
2013-02-13 14:38:00,59.5,19.5,30.11,West,278,1.0,5.0,21,0.00,,,0.00,Wunderground v.1.15,2013-02-13 21:38:00,
2013-02-13 14:44:00,60.5,20.3,30.11,NW,314,1.0,4.0,21,0.00,,,0.00,Wunderground v.1.15,2013-02-13 21:44:00,
2013-02-13 14:49:00,60.1,20.0,30.11,WNW,300,2.0,4.0,21,0.00,,,0.00,Wunderground v.1.15,2013-02-13 21:49:00,
2013-02-13 14:55:00,60.7,22.6,30.11,WNW,302,2.0,2.0,23,0.00,,,0.00,Wunderground v.1.15,2013-02-13 21:55:00,
2013-02-13 15:01:00,60.4,22.4,30.10,NNW,327,1.0,1.0,23,0.00,,,0.00,Wunderground v.1.15,2013-02-13 22:01:00,
2013-02-13 15:06:00,60.1,21.1,30.10,NW,305,1.0,1.0,22,0.00,,,0.00,Wunderground v.1.15,2013-02-13 22:06:00,
2013-02-13 15:11:00,60.9,21.8,30.10,West,261,2.0,2.0,22,0.00,,,0.00,Wunderground v.1.15,2013-02-13 22:11:00,
2013-02-13 15:16:00,61.1,20.8,30.10,West,261,3.0,5.0,21,0.00,,,0.00,Wunderground v.1.15,2013-02-13 22:16:00,
2013-02-13 15:21:00,60.6,20.4,30.10,West,261,1.0,1.0,21,0.00,,,0.00,Wunderground v.1.15,2013-02-13 22:21:00,
2013-02-13 15:27:00,60.8,21.7,30.09,North,11,1.0,4.0,22,0.00,,,0.00,Wunderground v.1.15,2013-02-13 22:27:00,
2013-02-13 15:32:00,60.5,20.3,30.09,NNE,12,2.0,4.0,21,0.00,,,0.00,Wunderground v.1.15,2013-02-13 22:32:00,
2013-02-13 15:37:00,60.3,19.0,30.09,ENE,72,2.0,5.0,20,0.00,,,0.00,Wunderground v.1.15,2013-02-13 22:37:00,
2013-02-13 15:42:00,60.0,22.0,30.09,North,358,2.0,2.0,23,0.00,,,0.00,Wunderground v.1.15,2013-02-13 22:42:00,
2013-02-13 15:47:00,60.9,21.8,30.09,North,3,2.0,4.0,22,0.00,,,0.00,Wunderground v.1.15,2013-02-13 22:47:00,
2013-02-13 15:52:00,60.3,21.2,30.09,NE,44,2.0,4.0,22,0.00,,,0.00,Wunderground v.1.15,2013-02-13 22:52:00,
2013-02-13 15:58:00,60.6,22.6,30.09,NNE,31,2.0,4.0,23,0.00,,,0.00,Wunderground v.1.15,2013-02-13 22:58:00,
2013-02-13 16:03:00,60.5,22.5,30.09,WNW,292,2.0,2.0,23,0.00,,,0.00,Wunderground v.1.15,2013-02-13 23:03:00,
2013-02-13 16:08:00,60.1,23.1,30.09,NW,304,1.0,2.0,24,0.00,,,0.00,Wunderground v.1.15,2013-02-13 23:08:00,
2013-02-13 16:13:00,60.2,23.2,30.09,NNE,18,1.0,4.0,24,0.00,,,0.00,Wunderground v.1.15,2013-02-13 23:13:00,
2013-02-13 16:19:00,60.3,24.3,30.09,North,8,2.0,4.0,25,0.00,,,0.00,Wunderground v.1.15,2013-02-13 23:19:00,
2013-02-13 16:25:00,60.3,24.3,30.09,North,9,2.0,3.0,25,0.00,,,0.00,Wunderground v.1.15,2013-02-13 23:25:00,
2013-02-13 16:31:00,60.3,24.3,30.09,WNW,303,2.0,4.0,25,0.00,,,0.00,Wunderground v.1.15,2013-02-13 23:31:00,
2013-02-13 16:36:00,59.9,25.8,30.09,North,353,2.0,4.0,27,0.00,,,0.00,Wunderground v.1.15,2013-02-13 23:36:00,
2013-02-13 16:41:00,59.2,25.2,30.09,NNW,337,2.0,2.0,27,0.00,,,0.00,Wunderground v.1.15,2013-02-13 23:41:00,
2013-02-13 16:46:00,58.9,24.9,30.09,NW,306,2.0,6.0,27,0.00,,,0.00,Wunderground v.1.15,2013-02-13 23:46:00,
2013-02-13 16:52:00,58.7,25.6,30.09,NNE,18,3.0,4.0,28,0.00,,,0.00,Wunderground v.1.15,2013-02-13 23:52:00,
2013-02-13 16:57:00,58.2,26.1,30.09,NW,310,2.0,7.0,29,0.00,,,0.00,Wunderground v.1.15,2013-02-13 23:57:00,
2013-02-13 17:02:00,58.2,26.1,30.09,WNW,302,2.0,6.0,29,0.00,,,0.00,Wunderground v.1.15,2013-02-14 00:02:00,
2013-02-13 17:07:00,58.1,26.0,30.09,WNW,298,2.0,6.0,29,0.00,,,0.00,Wunderground v.1.15,2013-02-14 00:07:00,
2013-02-13 17:12:00,57.8,25.7,30.09,WNW,293,3.0,5.0,29,0.00,,,0.00,Wunderground v.1.15,2013-02-14 00:12:00,
2013-02-13 17:18:00,57.3,26.1,30.09,WNW,303,2.0,5.0,30,0.00,,,0.00,Wunderground v.1.15,2013-02-14 00:18:00,
2013-02-13 17:24:00,57.3,26.1,30.09,WNW,290,2.0,6.0,30,0.00,,,0.00,Wunderground v.1.15,2013-02-14 00:24:00,
2013-02-13 17:29:00,57.3,26.1,30.09,WNW,292,2.0,8.0,30,0.00,,,0.00,Wunderground v.1.15,2013-02-14 00:29:00,
2013-02-13 17:35:00,57.2,26.0,30.09,WNW,293,2.0,5.0,30,0.00,,,0.00,Wunderground v.1.15,2013-02-14 00:35:00,
2013-02-13 17:40:00,57.0,25.8,30.10,WNW,293,1.0,1.0,30,0.00,,,0.00,Wunderground v.1.15,2013-02-14 00:40:00,
2013-02-13 17:45:00,56.8,25.7,30.10,WNW,302,2.0,6.0,30,0.00,,,0.00,Wunderground v.1.15,2013-02-14 00:45:00,
2013-02-13 17:50:00,56.6,25.5,30.10,WNW,291,3.0,3.0,30,0.00,,,0.00,Wunderground v.1.15,2013-02-14 00:50:00,
2013-02-13 17:55:00,56.4,26.1,30.10,NW,313,2.0,5.0,31,0.00,,,0.00,Wunderground v.1.15,2013-02-14 00:55:00,
2013-02-13 18:01:00,56.0,25.8,30.10,WNW,293,3.0,4.0,31,0.00,,,0.00,Wunderground v.1.15,2013-02-14 01:01:00,
2013-02-13 18:06:00,55.7,25.5,30.10,WNW,292,3.0,4.0,31,0.00,,,0.00,Wunderground v.1.15,2013-02-14 01:06:00,
2013-02-13 18:11:00,55.4,26.0,30.10,WNW,292,2.0,2.0,32,0.00,,,0.00,Wunderground v.1.15,2013-02-14 01:11:00,
2013-02-13 18:17:00,55.0,27.1,30.10,WNW,292,1.0,2.0,34,0.00,,,0.00,Wunderground v.1.15,2013-02-14 01:17:00,
2013-02-13 18:22:00,54.6,26.0,30.10,WNW,292,1.0,2.0,33,0.00,,,0.00,Wunderground v.1.15,2013-02-14 01:22:00,
2013-02-13 18:28:00,54.1,26.3,30.10,WNW,292,1.0,2.0,34,0.00,,,0.00,Wunderground v.1.15,2013-02-14 01:28:00,
2013-02-13 18:33:00,53.7,26.0,30.10,WNW,292,1.0,4.0,34,0.00,,,0.00,Wunderground v.1.15,2013-02-14 01:33:00,
2013-02-13 18:39:00,53.4,26.4,30.11,WNW,292,1.0,4.0,35,0.00,,,0.00,Wunderground v.1.15,2013-02-14 01:39:00,
2013-02-13 18:45:00,52.9,26.6,30.11,WNW,292,1.0,4.0,36,0.00,,,0.00,Wunderground v.1.15,2013-02-14 01:45:00,
2013-02-13 18:50:00,52.6,27.0,30.11,WNW,292,2.0,2.0,37,0.00,,,0.00,Wunderground v.1.15,2013-02-14 01:50:00,
2013-02-13 18:55:00,52.3,27.4,30.11,WNW,291,2.0,4.0,38,0.00,,,0.00,Wunderground v.1.15,2013-02-14 01:55:00,
2013-02-13 19:01:00,51.9,27.7,30.11,WNW,291,2.0,2.0,39,0.00,,,0.00,Wunderground v.1.15,2013-02-14 02:01:00,
2013-02-13 19:07:00,51.6,28.0,30.11,West,281,3.0,5.0,40,0.00,,,0.00,Wunderground v.1.15,2013-02-14 02:07:00,
2013-02-13 19:12:00,51.4,27.9,30.11,WNW,287,3.0,6.0,40,0.00,,,0.00,Wunderground v.1.15,2013-02-14 02:12:00,
2013-02-13 19:17:00,51.2,27.7,30.11,West,264,3.0,6.0,40,0.00,,,0.00,Wunderground v.1.15,2013-02-14 02:17:00,
2013-02-13 19:22:00,51.1,27.6,30.11,WNW,299,4.0,6.0,40,0.00,,,0.00,Wunderground v.1.15,2013-02-14 02:22:00,
2013-02-13 19:28:00,51.0,27.5,30.11,West,279,4.0,7.0,40,0.00,,,0.00,Wunderground v.1.15,2013-02-14 02:28:00,
2013-02-13 19:34:00,50.9,27.4,30.10,WNW,285,3.0,5.0,40,0.00,,,0.00,Wunderground v.1.15,2013-02-14 02:34:00,
2013-02-13 19:39:00,50.8,27.3,30.11,West,272,3.0,5.0,40,0.00,,,0.00,Wunderground v.1.15,2013-02-14 02:39:00,
2013-02-13 19:45:00,50.7,27.8,30.11,WNW,287,3.0,3.0,41,0.00,,,0.00,Wunderground v.1.15,2013-02-14 02:45:00,
2013-02-13 19:50:00,50.5,27.7,30.11,West,281,2.0,2.0,41,0.00,,,0.00,Wunderground v.1.15,2013-02-14 02:50:00,
2013-02-13 19:56:00,50.3,26.9,30.11,WNW,291,3.0,5.0,40,0.00,,,0.00,Wunderground v.1.15,2013-02-14 02:56:00,
2013-02-13 20:02:00,50.1,27.3,30.11,WNW,284,3.0,3.0,41,0.00,,,0.00,Wunderground v.1.15,2013-02-14 03:02:00,
2013-02-13 20:07:00,50.0,27.2,30.11,West,281,2.0,4.0,41,0.00,,,0.00,Wunderground v.1.15,2013-02-14 03:07:00,
2013-02-13 20:12:00,49.8,27.0,30.11,West,270,3.0,4.0,41,0.00,,,0.00,Wunderground v.1.15,2013-02-14 03:12:00,
2013-02-13 20:18:00,49.7,26.9,30.12,West,271,3.0,4.0,41,0.00,,,0.00,Wunderground v.1.15,2013-02-14 03:18:00,
2013-02-13 20:23:00,49.6,26.2,30.12,WNW,283,3.0,4.0,40,0.00,,,0.00,Wunderground v.1.15,2013-02-14 03:23:00,
2013-02-13 20:29:00,49.4,26.1,30.12,WNW,283,3.0,7.0,40,0.00,,,0.00,Wunderground v.1.15,2013-02-14 03:29:00,
2013-02-13 20:35:00,49.3,26.0,30.12,West,277,3.0,6.0,40,0.00,,,0.00,Wunderground v.1.15,2013-02-14 03:35:00,
2013-02-13 20:40:00,49.2,25.9,30.12,WNW,284,3.0,3.0,40,0.00,,,0.00,Wunderground v.1.15,2013-02-14 03:40:00,
2013-02-13 20:46:00,49.0,26.3,30.12,West,272,3.0,5.0,41,0.00,,,0.00,Wunderground v.1.15,2013-02-14 03:46:00,
2013-02-13 20:51:00,48.8,26.1,30.12,West,270,3.0,4.0,41,0.00,,,0.00,Wunderground v.1.15,2013-02-14 03:51:00,
2013-02-13 20:56:00,48.6,25.3,30.12,West,266,4.0,4.0,40,0.00,,,0.00,Wunderground v.1.15,2013-02-14 03:56:00,
2013-02-13 21:01:00,48.6,25.3,30.12,West,266,4.0,4.0,40,0.00,,,0.00,Wunderground v.1.15,2013-02-14 04:01:00,
2013-02-13 21:06:00,48.5,24.6,30.12,West,263,4.0,4.0,39,0.00,,,0.00,Wunderground v.1.15,2013-02-14 04:06:00,
2013-02-13 21:11:00,48.5,24.6,30.12,West,268,3.0,4.0,39,0.00,,,0.00,Wunderground v.1.15,2013-02-14 04:11:00,
2013-02-13 21:16:00,48.4,24.6,30.12,West,262,3.0,5.0,39,0.00,,,0.00,Wunderground v.1.15,2013-02-14 04:16:00,
2013-02-13 21:21:00,48.3,24.5,30.12,West,264,3.0,3.0,39,0.00,,,0.00,Wunderground v.1.15,2013-02-14 04:21:00,
2013-02-13 21:26:00,48.3,23.8,30.12,West,260,3.0,6.0,38,0.00,,,0.00,Wunderground v.1.15,2013-02-14 04:26:00,
2013-02-13 21:31:00,48.2,23.7,30.12,West,270,4.0,4.0,38,0.00,,,0.00,Wunderground v.1.15,2013-02-14 04:31:00,
2013-02-13 21:36:00,48.1,23.7,30.13,West,271,3.0,4.0,38,0.00,,,0.00,Wunderground v.1.15,2013-02-14 04:36:00,
2013-02-13 21:42:00,48.0,23.6,30.13,West,265,3.0,6.0,38,0.00,,,0.00,Wunderground v.1.15,2013-02-14 04:42:00,
2013-02-13 21:47:00,47.9,23.5,30.13,West,281,3.0,6.0,38,0.00,,,0.00,Wunderground v.1.15,2013-02-14 04:47:00,
2013-02-13 21:52:00,47.8,24.0,30.13,West,281,3.0,4.0,39,0.00,,,0.00,Wunderground v.1.15,2013-02-14 04:52:00,
2013-02-13 21:57:00,47.8,24.0,30.13,West,279,2.0,4.0,39,0.00,,,0.00,Wunderground v.1.15,2013-02-14 04:57:00,
2013-02-13 22:00:00,47.7,23.9,30.13,West,278,3.0,3.0,39,0.00,,,0.00,Wunderground v.1.15,2013-02-14 05:00:00,
2013-02-13 22:02:00,47.7,23.9,30.13,West,278,3.0,4.0,39,0.00,,,0.00,Wunderground v.1.15,2013-02-14 05:02:00,
2013-02-13 22:06:00,47.6,23.8,30.13,West,278,2.0,4.0,39,0.00,,,0.00,Wunderground v.1.15,2013-02-14 05:06:00,
2013-02-13 22:08:00,47.6,23.8,30.13,West,278,2.0,4.0,39,0.00,,,0.00,Wunderground v.1.15,2013-02-14 05:08:00,
2013-02-13 22:14:00,47.5,23.7,30.13,West,278,2.0,5.0,39,0.00,,,0.00,Wunderground v.1.15,2013-02-14 05:14:00,
2013-02-13 22:20:00,47.4,23.7,30.13,West,278,2.0,2.0,39,0.00,,,0.00,Wunderground v.1.15,2013-02-14 05:20:00,
2013-02-13 22:25:00,47.3,24.2,30.13,West,278,2.0,4.0,40,0.00,,,0.00,Wunderground v.1.15,2013-02-14 05:25:00,
2013-02-13 22:31:00,47.2,24.1,30.13,West,278,1.0,1.0,40,0.00,,,0.00,Wunderground v.1.15,2013-02-14 05:31:00,
2013-02-13 22:36:00,47.1,24.6,30.13,West,278,0.0,1.0,41,0.00,,,0.00,Wunderground v.1.15,2013-02-14 05:36:00,
2013-02-13 22:41:00,46.9,24.4,30.13,West,278,0.0,0.0,41,0.00,,,0.00,Wunderground v.1.15,2013-02-14 05:41:00,
2013-02-13 22:46:00,46.7,24.8,30.13,West,278,0.0,0.0,42,0.00,,,0.00,Wunderground v.1.15,2013-02-14 05:46:00,
2013-02-13 22:51:00,46.4,25.1,30.13,West,278,0.0,0.0,43,0.00,,,0.00,Wunderground v.1.15,2013-02-14 05:51:00,
2013-02-13 22:57:00,46.1,24.8,30.13,West,278,0.0,0.0,43,0.00,,,0.00,Wunderground v.1.15,2013-02-14 05:57:00,
2013-02-13 23:02:00,45.8,25.1,30.13,West,278,0.0,0.0,44,0.00,,,0.00,Wunderground v.1.15,2013-02-14 06:02:00,
2013-02-13 23:07:00,45.5,25.4,30.13,West,278,0.0,0.0,45,0.00,,,0.00,Wunderground v.1.15,2013-02-14 06:07:00,
2013-02-13 23:12:00,45.1,25.0,30.13,West,278,0.0,0.0,45,0.00,,,0.00,Wunderground v.1.15,2013-02-14 06:12:00,
2013-02-13 23:17:00,44.8,25.3,30.13,West,278,0.0,0.0,46,0.00,,,0.00,Wunderground v.1.15,2013-02-14 06:17:00,
2013-02-13 23:22:00,44.4,25.9,30.13,West,278,0.0,0.0,48,0.00,,,0.00,Wunderground v.1.15,2013-02-14 06:22:00,
2013-02-13 23:27:00,44.0,26.5,30.13,West,278,0.0,0.0,50,0.00,,,0.00,Wunderground v.1.15,2013-02-14 06:27:00,
2013-02-13 23:32:00,43.8,26.8,30.13,West,278,0.0,0.0,51,0.00,,,0.00,Wunderground v.1.15,2013-02-14 06:32:00,
2013-02-13 23:38:00,43.6,26.6,30.13,West,278,0.0,0.0,51,0.00,,,0.00,Wunderground v.1.15,2013-02-14 06:38:00,
2013-02-13 23:43:00,43.4,26.9,30.13,West,278,0.0,0.0,52,0.00,,,0.00,Wunderground v.1.15,2013-02-14 06:43:00,
2013-02-13 23:49:00,43.0,27.9,30.13,West,278,1.0,2.0,55,0.00,,,0.00,Wunderground v.1.15,2013-02-14 06:49:00,
2013-02-13 23:54:00,42.5,27.9,30.13,West,278,1.0,1.0,56,0.00,,,0.00,Wunderground v.1.15,2013-02-14 06:54:00,